TimeCDT,TemperatureF,Dew PointF,Humidity,Sea Level PressureIn,VisibilityMPH,Wind Direction,Wind SpeedMPH,Gust SpeedMPH,PrecipitationIn,Events,Conditions,WindDirDegrees,DateUTC
12:13 AM,35.6,24.8,65,30.21,10.0,East,3.5,-,N/A,,Clear,100,2012-10-30 05:13:00
12:33 AM,37.4,23.0,56,30.21,10.0,East,4.6,-,N/A,,Clear,100,2012-10-30 05:33:00
12:54 AM,35.6,24.8,65,30.21,10.0,Calm,Calm,-,N/A,,Clear,0,2012-10-30 05:54:00
1:13 AM,37.4,23.0,56,30.20,10.0,Calm,Calm,-,N/A,,Clear,0,2012-10-30 06:13:00
1:33 AM,35.6,23.0,60,30.20,10.0,East,3.5,-,N/A,,Clear,90,2012-10-30 06:33:00
1:53 AM,33.8,21.2,60,30.20,10.0,East,3.5,-,N/A,,Clear,80,2012-10-30 06:53:00
2:14 AM,33.8,24.8,70,30.20,10.0,Calm,Calm,-,N/A,,Clear,0,2012-10-30 07:14:00
2:33 AM,33.8,21.2,60,30.20,10.0,Calm,Calm,-,N/A,,Clear,0,2012-10-30 07:33:00
2:53 AM,30.2,23.0,75,30.20,10.0,East,3.5,-,N/A,,Clear,90,2012-10-30 07:53:00
3:33 AM,33.8,21.2,60,30.19,10.0,East,3.5,-,N/A,,Clear,90,2012-10-30 08:33:00
3:53 AM,33.8,21.2,60,30.19,10.0,East,3.5,-,N/A,,Clear,80,2012-10-30 08:53:00
4:13 AM,32.0,21.2,64,30.18,10.0,East,3.5,-,N/A,,Clear,80,2012-10-30 09:13:00
4:33 AM,28.4,19.4,69,30.18,10.0,Calm,Calm,-,N/A,,Clear,0,2012-10-30 09:33:00
4:53 AM,30.2,19.4,64,30.18,10.0,Calm,Calm,-,N/A,,Clear,0,2012-10-30 09:53:00
5:13 AM,28.4,19.4,69,30.18,10.0,Calm,Calm,-,N/A,,Clear,0,2012-10-30 10:13:00
5:34 AM,30.2,19.4,64,30.19,10.0,Calm,Calm,-,N/A,,Clear,0,2012-10-30 10:34:00
6:14 AM,30.2,19.4,64,30.18,10.0,Calm,Calm,-,N/A,,Clear,0,2012-10-30 11:14:00
6:33 AM,32.0,21.2,64,30.18,10.0,East,3.5,-,N/A,,Clear,80,2012-10-30 11:33:00
6:53 AM,33.8,19.4,56,30.18,10.0,ENE,3.5,-,N/A,,Clear,70,2012-10-30 11:53:00
7:14 AM,32.0,19.4,60,30.18,10.0,East,5.8,-,N/A,,Clear,80,2012-10-30 12:14:00
7:33 AM,33.8,19.4,56,30.18,10.0,ENE,3.5,-,N/A,,Clear,70,2012-10-30 12:33:00
7:53 AM,28.4,19.4,69,30.18,10.0,Calm,Calm,-,N/A,,Clear,0,2012-10-30 12:53:00
8:33 AM,30.2,19.4,64,30.17,10.0,ENE,5.8,-,N/A,,Clear,70,2012-10-30 13:33:00
8:53 AM,35.6,23.0,60,30.17,10.0,East,8.1,-,N/A,,Clear,80,2012-10-30 13:53:00
9:13 AM,37.4,24.8,60,30.17,10.0,ENE,8.1,-,N/A,,Clear,70,2012-10-30 14:13:00
9:33 AM,39.2,24.8,56,30.17,10.0,ENE,8.1,-,N/A,,Clear,70,2012-10-30 14:33:00
10:13 AM,42.8,26.6,53,30.16,10.0,NE,11.5,-,N/A,,Clear,50,2012-10-30 15:13:00
10:33 AM,42.8,26.6,53,30.16,10.0,ENE,13.8,-,N/A,,Clear,70,2012-10-30 15:33:00
10:53 AM,44.6,26.6,49,30.16,10.0,ENE,11.5,-,N/A,,Clear,60,2012-10-30 15:53:00
11:13 AM,44.6,24.8,46,30.16,10.0,NE,8.1,-,N/A,,Clear,40,2012-10-30 16:13:00
11:33 AM,46.4,24.8,43,30.15,10.0,NE,5.8,-,N/A,,Clear,40,2012-10-30 16:33:00
11:53 AM,46.4,24.8,43,30.14,10.0,NNE,10.4,-,N/A,,Clear,20,2012-10-30 16:53:00
12:13 PM,46.4,24.8,43,30.13,10.0,NNE,9.2,16.1,N/A,,Clear,30,2012-10-30 17:13:00
12:33 PM,46.4,24.8,43,30.12,10.0,NNE,9.2,-,N/A,,Clear,20,2012-10-30 17:33:00
12:53 PM,48.2,21.2,34,30.11,10.0,NNE,10.4,-,N/A,,Clear,20,2012-10-30 17:53:00
1:13 PM,48.2,23.0,37,30.10,10.0,North,9.2,-,N/A,,Clear,350,2012-10-30 18:13:00
1:33 PM,48.2,21.2,34,30.10,10.0,North,11.5,-,N/A,,Clear,350,2012-10-30 18:33:00
1:53 PM,48.2,19.4,32,30.09,10.0,North,10.4,-,N/A,,Clear,360,2012-10-30 18:53:00
2:13 PM,50.0,21.2,32,30.08,10.0,North,10.4,16.1,N/A,,Clear,350,2012-10-30 19:13:00
2:33 PM,50.0,21.2,32,30.07,10.0,NW,6.9,-,N/A,,Clear,320,2012-10-30 19:33:00
2:53 PM,50.0,19.4,30,30.07,10.0,North,11.5,-,N/A,,Clear,350,2012-10-30 19:53:00
3:14 PM,48.2,19.4,32,30.06,10.0,NNW,12.7,-,N/A,,Clear,340,2012-10-30 20:14:00
3:33 PM,50.0,21.2,32,30.06,10.0,NNW,11.5,-,N/A,,Clear,330,2012-10-30 20:33:00
3:54 PM,50.0,17.6,28,30.05,10.0,NNW,12.7,16.1,N/A,,Clear,330,2012-10-30 20:54:00
4:14 PM,50.0,21.2,32,30.05,10.0,NNW,13.8,-,N/A,,Clear,330,2012-10-30 21:14:00
4:33 PM,51.8,21.2,30,30.04,10.0,NNW,11.5,-,N/A,,Clear,340,2012-10-30 21:33:00
4:53 PM,50.0,21.2,32,30.04,10.0,NNW,12.7,-,N/A,,Clear,330,2012-10-30 21:53:00
5:13 PM,48.2,23.0,37,30.04,10.0,NW,10.4,17.3,N/A,,Clear,310,2012-10-30 22:13:00
5:33 PM,48.2,23.0,37,30.05,10.0,NW,12.7,-,N/A,,Clear,320,2012-10-30 22:33:00
5:54 PM,44.6,24.8,46,30.05,10.0,NW,9.2,-,N/A,,Clear,310,2012-10-30 22:54:00
6:13 PM,42.8,24.8,49,30.05,10.0,NNW,6.9,-,N/A,,Clear,330,2012-10-30 23:13:00
6:34 PM,41.0,24.8,53,30.05,10.0,North,5.8,-,N/A,,Clear,350,2012-10-30 23:34:00
7:13 PM,37.4,24.8,60,30.04,10.0,North,5.8,-,N/A,,Clear,350,2012-10-31 00:13:00
7:34 PM,37.4,26.6,65,30.04,10.0,Calm,Calm,-,N/A,,Clear,0,2012-10-31 00:34:00
7:53 PM,37.4,26.6,65,30.04,10.0,Calm,Calm,-,N/A,,Clear,0,2012-10-31 00:53:00
8:13 PM,35.6,24.8,65,30.05,10.0,NW,3.5,-,N/A,,Clear,310,2012-10-31 01:13:00
8:33 PM,33.8,24.8,70,30.05,10.0,NW,3.5,-,N/A,,Clear,320,2012-10-31 01:33:00
8:53 PM,33.8,24.8,70,30.05,10.0,Calm,Calm,-,N/A,,Clear,0,2012-10-31 01:53:00
9:13 PM,33.8,24.8,70,30.05,10.0,Calm,Calm,-,N/A,,Clear,0,2012-10-31 02:13:00
9:33 PM,37.4,21.2,52,30.05,10.0,North,9.2,-,N/A,,Clear,10,2012-10-31 02:33:00
9:53 PM,37.4,19.4,48,30.05,10.0,North,9.2,-,N/A,,Clear,10,2012-10-31 02:53:00
10:13 PM,37.4,17.6,45,30.05,10.0,North,10.4,-,N/A,,Clear,10,2012-10-31 03:13:00
10:33 PM,37.4,17.6,45,30.04,10.0,NNE,8.1,-,N/A,,Clear,20,2012-10-31 03:33:00
10:53 PM,37.4,17.6,45,30.04,10.0,NNE,10.4,-,N/A,,Clear,20,2012-10-31 03:53:00
11:13 PM,35.6,17.6,48,30.04,10.0,North,6.9,-,N/A,,Clear,10,2012-10-31 04:13:00
11:33 PM,35.6,17.6,48,30.04,10.0,North,6.9,-,N/A,,Clear,10,2012-10-31 04:33:00
11:53 PM,33.8,17.6,52,30.04,10.0,North,4.6,-,N/A,,Clear,360,2012-10-31 04:53:00